Regional Weather Roundup
Issued by NWS State College, PA

Home | Current Version | Previous Version | Graphics & Text | Print | Product List | Glossary Off
Versions: 1 2 3 4 5 6 7 8 9 10 11 12 13 14 15 16 17 18 19 20 21 22 23 24 25 26 27 28 29 30 31 32 33 34 35 36 37 38 39 40 41 42 43 44 45 46 47 48 49 50

000
ASUS41 KCTP 272310
RWRCTP

REGIONAL WEATHER ROUNDUP
NATIONAL WEATHER SERVICE STATE COLLEGE PA
700 PM EDT THU AUG 27 2015

Note: "fair" indicates few or no clouds below 12,000 feet with no
significant weather and/or obstructions to visibility.

* = STATION THAT DOES NOT REPORT PRECIPITATION /E.G. RAIN...SNOW...ETC/
    THUNDER OR FOG.

PAZ002>004-007>009-013>016-020>023-029>032-280000-
WESTERN PENNSYLVANIA

CITY           SKY/WX    TMP DP  RH WIND       PRES   REMARKS
ERIE           MOSUNNY   66  53  63 W7        30.17R
MEADVILLE      SUNNY     65  53  65 VRB6      30.18R
FRANKLIN*      PTSUNNY   66  54  63 N5        30.18S
NEW CASTLE     FAIR      69  58  68 CALM      30.17R
BEAVER COUNTY  CLOUDY    68  57  68 W3        30.16R
BUTLER*        CLOUDY    66  57  72 CALM      30.18R
PITTSBURGH INT PTSUNNY   69  55  60 NW5       30.15R
PITTSBURGH     CLOUDY    68  50  52 VRB5      30.15R
INDIANA*       CLOUDY    68  57  68 NW5       30.19R
LATROBE        CLOUDY    68  55  64 CALM      30.16R
WASHINGTON CO* CLOUDY    70  54  56 CALM      30.16S
$$

PAZ004>006-010>012-017>019-024>028-033>037-041-042-045-046-049>053-280000-
CENTRAL PENNSYLVANIA

CITY           SKY/WX    TMP DP  RH WIND       PRES   REMARKS
BRADFORD       CLEAR     62  51  67 NW8       30.17R
DUBOIS         CLOUDY    67  54  63 W5        30.15R
CLEARFIELD     CLOUDY    67  55  65 VRB3      30.14S
JOHNSTOWN      CLOUDY    63  53  70 W3        30.17S
ALTOONA        CLOUDY    68  54  60 W3        30.15S
STATE COLLEGE  CLOUDY    68  57  68 CALM      30.13S
WILLIAMSPORT   CLOUDY    71  56  58 CALM      30.09S
SELINSGROVE    MOCLDY    67  61  81 CALM      30.11S
FT INDIANTOWN  CLOUDY    71  56  61 VRB3      30.11R
CAPITAL CITY   CLOUDY    73  55  53 NW6       30.10S
HARRISBURG     MOCLDY    73  56  54 N5        30.09S
YORK           CLOUDY    71  59  65 CALM      30.11S
$$

PAZ038>040-043-044-047-048-054-055-060>062-067>071-280000-
EASTERN PENNSYLVANIA

CITY           SKY/WX    TMP DP  RH WIND       PRES   REMARKS
SCRANTON       MOCLDY    71  51  49 NW8       30.10S
MOUNT POCONO   PTCLDY    64  52  64 NW6       30.13S
ALLENTOWN      CLOUDY    74  54  49 NW6       30.09S
QUAKERTOWN*    CLOUDY    72  55  56 N3        30.10S
READING        MOCLDY    72  54  53 NW7       30.08S
LANCASTER      CLOUDY    71  57  61 NW3       30.10S
COATESVILLE    PTCLDY    72  55  56 NW6       30.11S
POTTSTOWN      PTCLDY    72  55  55 NW6       30.10S
BLUE BELL      CLEAR     72  57  60 CALM      30.08S
DOYLESTOWN     MOCLDY    71  54  54 N6        30.08S
WILLOW GROVE   NOT AVBL
NORTH PHILA    PTCLDY    76  52  43 N10       30.08S
PHILADELPHIA   PTCLDY    79  50  36 NW13      30.08S
$$


USA.gov is the U.S. government's official web portal to all federal, state and local government web resources and services.